Location: Briis
(48.6240°N, 2.1211°E)
Time: 16:12:53
(UTC+00:00)

H-2A R/B - Pass Details

Date: 25 September 2020
Orbit: 577 x 655 km, 98.5° (Epoch: 22 October)

Event Time Altitude Azimuth Distance (km) Brightness Sun altitude
Rises 04:07:58 0° 184° (S) 2,913 5.3 -16.3°
Reaches altitude 10° 04:10:14 10° 191° (SSW) 2,021 4.4 -15.9°
Maximum altitude 04:14:24 40° 261° (W) 957 2.5 -15.2°
Drops below altitude 10° 04:18:39 10° 332° (NNW) 2,068 4.6 -14.6°
Sets 04:21:01 0° 340° (NNW) 2,990 5.5 -14.2°
